Weather in Alatyr

Russia / Chuvash Republic     54°50′23″N   46°34′19″E
temp.,
°C
wind,
m/s
gust,
m/s
humid.,
%
clouds,
%
prec.,
mm/h
press.,
hPa
HPBL,
m
18 may, tue
tue1800:00+16e227298 0.0 101629
03:00+16sse227363 0.0 101623
06:00+18e23685 0.0 101694
09:00+24se45535 0.0 1016430
12:00+29se46315 0.0 10151495
15:00+30ese45335 0.0 10151995
18:00+25e34484 0.0 101463
21:00+19e38605 0.0 1015108
19 may, wed
wed1900:00+17e36815 0.0 101490
03:00+16e411755 0.0 1015232
06:00+18ese5127534 0.0 1015350
09:00+23ese710605 0.0 1015592
12:00+26ese89505 0.0 10151039
15:00+26ese79510 0.0 10141330
18:00+23ese612580 0.0 1014443
21:00+20ese514560 0.0 1014361
20 may, thu
thu2000:00+19ese514650 0.0 1014420
03:00+18se615660 0.0 1013484
06:00+18se614720 0.0 1014583
09:00+21se710600 0.0 1013895
12:00+24se9115443 0.0 10131810
15:00+21s51167100 0.3 1013563
18:00+21s61071100 0.5 1012571
21:00+16se2287100 0.8 101324
21 may, fri
fri2100:00+16s228459 0.1 101224
03:00+15ssw2282100 0.3 101244
06:00+15ssw2483100 0.0 1012172
09:00+18sw2373100 0.2 1012573
12:00+20sw346576 3.1 10121315
15:00+19wsw5873100 4.7 1013917
18:00+18wsw48710 0.2 1013750
21:00+14wsw388888 0.2 1015180
22 may, sat
sat2200:00+12wsw41088100 0.0 1016248
03:00+11wsw389497 0.0 1018208
06:00+12wsw3588100 0.0 1019254
09:00+16wsw4575100 0.0 1020716
12:00+19w3462100 0.0 10201090
15:00+16w348397 0.4 1021255
18:00+14nne3489100 0.3 1021240
21:00+13nnw2397100 7.6 1021150